Flag Weather past 2 weeks in Böblingen, Baden-Württemberg, Germany

Now
43 °F

Clear.


Feels Like: 43 °F
Forecast: 44 / 57 °F
Wind: 1 mph from South

Location: Stuttgart-Echterdingen

Current Time: Nov 22, 2014 at 4:16:20 AM

Latest Report: Nov 22, 2014 at 3:20 AM


Visibility: 10 mi

Pressure: 30.12 "Hg

Humidity: 93%

Dew point: 41 °F

Location of BöblingenLocation

Historic Weather in Böblingen — Graph

°F

Böblingen temperature yesterday

Maximum temperature yesterday: 46 °F (at 1:50 PM)
Minimum temperature yesterday: 37 °F (at 2:50 AM)
Average temperature yesterday: 42 °F

Past Weeks' High & Low Weather Summary

 TemperatureHumidityPressure
High55 °F (Nov 7, 2:50 PM)100% (Nov 7, 4:20 AM)30.30 "Hg (Nov 7, 4:20 AM)
Low32 °F (Nov 7, 5:20 AM)55% (Nov 8, 2:50 PM)29.53 "Hg (Nov 15, 10:20 PM)
Average44 °F91%29.85 "Hg
* Reported Nov 7 3:20 AM — Nov 22 3:20 AM, Böblingen, Weather by CustomWeather, © 2014

Note: Actual official high and low records may vary slightly from our data, if they occured in-between our weather recording intervals... More about our weather records

Advertising

Böblingen weather history for previous 24 hours

 ConditionsComfort  
Time TempWeatherWind HumidityBarometerVisibility
3:20 AM
Nov 22
43 °FClear.1 mph93%30.12 "Hg10 mi
2:50 AM43 °FClear.1 mph93%30.12 "Hg10 mi
2:20 AM43 °FClear.1 mph93%30.12 "Hg10 mi
1:50 AM43 °FClear.1 mph93%30.12 "Hg10 mi
1:20 AM41 °FClear.1 mph100%30.12 "Hg10 mi
12:50 AM41 °FClear.2 mph93%30.12 "Hg10 mi
12:20 AM41 °FClear.2 mph100%30.12 "Hg10 mi
11:50 PM
Nov 21
41 °FClear.1 mph100%30.15 "Hg10 mi
11:20 PM41 °FClear.1 mph93%30.12 "Hg10 mi
10:20 PM43 °FClear.2 mph93%30.12 "Hg10 mi
9:50 PM43 °FClear.1 mph93%30.15 "Hg10 mi
9:20 PM43 °FClear.1 mph93%30.15 "Hg10 mi
8:50 PM43 °FClear.2 mph87%30.15 "Hg10 mi
8:20 PM43 °FClear.1 mph93%30.15 "Hg10 mi
7:50 PM43 °FClear.2 mph93%30.12 "Hg10 mi
7:20 PM43 °FClear.3 mph93%30.12 "Hg10 mi
6:50 PM43 °FClear.1 mph93%30.12 "Hg10 mi
6:20 PM43 °FLight rain. Partly cloudy.2 mph93%30.12 "HgN/A
5:50 PM43 °FLight rain. Partly cloudy.3 mph93%30.12 "HgN/A
5:20 PM43 °FClear.3 mph93%30.12 "Hg10 mi
4:50 PM45 °FClear.5 mph87%30.12 "Hg6 mi
4:20 PM45 °FClear.5 mph87%30.15 "Hg6 mi
3:50 PM45 °FSunny.5 mph87%30.12 "Hg10 mi
3:20 PM45 °FLight rain. Clear.5 mph87%30.15 "HgN/A
2:50 PM45 °FLight rain. Clear.3 mph93%30.15 "HgN/A
2:20 PM46 °FLight rain. Clear.5 mph82%30.15 "HgN/A
1:50 PM46 °FSunny.5 mph82%30.15 "Hg10 mi
1:20 PM45 °FSunny.5 mph87%30.15 "Hg10 mi
12:50 PM45 °FSunny.5 mph87%30.15 "Hg10 mi
12:20 PM45 °FLight rain. Clear.5 mph87%30.15 "HgN/A
11:50 AM45 °FSunny.2 mph87%30.18 "Hg10 mi
11:20 AM43 °FSunny.2 mph93%30.18 "Hg10 mi
10:50 AM43 °FLight rain. Clear.2 mph87%30.18 "HgN/A
10:20 AM43 °FLight rain. Partly sunny.3 mph87%30.18 "HgN/A
9:50 AM41 °FSunny.1 mph93%30.18 "Hg10 mi
9:20 AM41 °FSunny.2 mph93%30.18 "Hg10 mi
8:50 AM41 °FBroken clouds.1 mph93%30.18 "HgN/A
8:20 AM39 °FLight rain. Partly sunny.1 mph93%30.18 "HgN/A
7:50 AM39 °FSunny.1 mph93%30.18 "Hg10 mi
7:20 AM39 °FClear.1 mph93%30.18 "Hg10 mi
6:50 AM39 °FClear.No wind93%30.18 "Hg10 mi
6:20 AM39 °FClear.1 mph93%30.18 "Hg10 mi
5:50 AM39 °FClear.2 mph93%30.18 "Hg10 mi
5:20 AM39 °FClear.2 mph93%30.18 "Hg10 mi
4:50 AM37 °FClear.2 mph100%30.18 "Hg10 mi
4:20 AM37 °FClear.3 mph100%30.21 "Hg10 mi
Weather by CustomWeather, © 2014

See weather overviewHow to use our weather pages